When you browse on this site, cookies collect data to enhance your experience and personalize the content and advertising you see.
Visit our Privacy Policy to learn more. By continuing to use the site, you agree to this use of cookies and data.
  • In Czech Republic
  • List of Countries
  • For 7 days
  • Water Temperature
  • Satellite Maps
  • Weather Map
  • Weather Widgets
  • user-avatar
    Login

    Hourly Weather Neuquén

    Today, 20 January, Sunday

    Time Temperature Precipitation Wind Pressure Humidity
    00:00 +30°C° 0 mm 7 mps 729 mmHg 28%
    01:00 +29°C° 0 mm 7 mps 729 mmHg 31%
    02:00 +28°C° 0 mm 6 mps 729 mmHg 31%
    03:00 +27°C° 0 mm 4 mps 729 mmHg 32%
    04:00 +26°C° 0 mm 3 mps 729 mmHg 33%
    05:00 +27°C° 0 mm 3 mps 729 mmHg 29%
    06:00 +29°C° 0 mm 4 mps 729 mmHg 26%
    07:00 +30°C° 0 mm 4 mps 729 mmHg 23%
    08:00 +32°C° 0 mm 4 mps 729 mmHg 20%
    09:00 +34°C° 0 mm 4 mps 729 mmHg 18%
    10:00 +35°C° 0 mm 5 mps 729 mmHg 15%
    11:00 +36°C° 0 mm 5 mps 728 mmHg 14%
    12:00 +38°C° 0 mm 6 mps 728 mmHg 12%
    13:00 +40°C° 0 mm 7 mps 727 mmHg 11%
    14:00 +40°C° 0 mm 8 mps 727 mmHg 9%
    15:00 +40°C° 0 mm 10 mps 727 mmHg 8%
    16:00 +42°C° 0 mm 11 mps 727 mmHg 6%
    17:00 +39°C° 0 mm 11 mps 727 mmHg 8%
    18:00 +37°C° 0 mm 12 mps 728 mmHg 10%
    19:00 +33°C° 0 mm 12 mps 728 mmHg 12%
    20:00 +32°C° 0 mm 12 mps 729 mmHg 15%
    21:00 +29°C° 0 mm 11 mps 730 mmHg 18%
    22:00 +27°C° 0 mm 11 mps 731 mmHg 22%
    23:00 +26°C° 0 mm 10 mps 731 mmHg 23%

    Tomorrow, 21 January, Monday

    Time Temperature Precipitation Wind Pressure Humidity
    00:00 +24°C° 0 mm 10 mps 731 mmHg 24%
    01:00 +23°C° 0 mm 9 mps 731 mmHg 25%
    02:00 +22°C° 0 mm 9 mps 731 mmHg 29%
    03:00 +22°C° 0 mm 8 mps 731 mmHg 33%
    04:00 +21°C° 0 mm 8 mps 731 mmHg 37%
    05:00 +21°C° 0 mm 8 mps 732 mmHg 34%
    06:00 +22°C° 0 mm 8 mps 732 mmHg 32%
    07:00 +23°C° 0 mm 8 mps 733 mmHg 29%
    08:00 +26°C° 0 mm 7 mps 733 mmHg 24%
    09:00 +28°C° 0 mm 6 mps 732 mmHg 18%
    10:00 +29°C° 0 mm 5 mps 732 mmHg 13%
    11:00 +32°C° 0 mm 5 mps 731 mmHg 12%
    12:00 +33°C° 0 mm 6 mps 731 mmHg 11%
    13:00 +35°C° 0 mm 6 mps 730 mmHg 10%
    14:00 +36°C° 0 mm 6 mps 729 mmHg 9%
    15:00 +38°C° 0 mm 6 mps 728 mmHg 8%
    16:00 +39°C° 0 mm 7 mps 728 mmHg 7%
    17:00 +38°C° 0 mm 7 mps 728 mmHg 7%
    18:00 +37°C° 0 mm 8 mps 728 mmHg 6%
    19:00 +35°C° 0 mm 9 mps 728 mmHg 5%
    20:00 +33°C° 0 mm 9 mps 728 mmHg 8%
    21:00 +31°C° 0 mm 9 mps 729 mmHg 11%
    22:00 +28°C° 0 mm 9 mps 729 mmHg 13%
    23:00 +27°C° 0 mm 9 mps 729 mmHg 15%

    Day after tomorrow, 22 January, Tuesday

    Time Temperature Precipitation Wind Pressure Humidity
    00:00 +24°C° 0 mm 9 mps 729 mmHg 17%
    01:00 +23°C° 0 mm 9 mps 729 mmHg 19%
    02:00 +22°C° 0 mm 10 mps 729 mmHg 20%
    03:00 +22°C° 0 mm 10 mps 729 mmHg 21%
    04:00 +21°C° 0 mm 10 mps 729 mmHg 21%
    05:00 +22°C° 0 mm 11 mps 730 mmHg 21%
    06:00 +22°C° 0 mm 11 mps 730 mmHg 21%
    07:00 +23°C° 0 mm 12 mps 731 mmHg 21%
    08:00 +24°C° 0 mm 11 mps 731 mmHg 21%
    09:00 +26°C° 0 mm 11 mps 731 mmHg 21%
    10:00 +28°C° 0 mm 11 mps 731 mmHg 22%
    11:00 +29°C° 0 mm 10 mps 731 mmHg 20%
    12:00 +31°C° 0 mm 10 mps 731 mmHg 18%
    13:00 +32°C° 0 mm 10 mps 731 mmHg 16%
    14:00 +32°C° 0 mm 10 mps 730 mmHg 15%
    15:00 +33°C° 0 mm 10 mps 730 mmHg 14%
    16:00 +33°C° 0 mm 10 mps 730 mmHg 14%
    17:00 +32°C° 0 mm 9 mps 730 mmHg 13%
    18:00 +31°C° 0 mm 8 mps 731 mmHg 13%
    19:00 +29°C° 0 mm 7 mps 731 mmHg 12%
    20:00 +28°C° 0 mm 6 mps 732 mmHg 13%
    21:00 +27°C° 0 mm 6 mps 732 mmHg 13%
    22:00 +27°C° 0 mm 5 mps 733 mmHg 13%
    23:00 +26°C° 0 mm 5 mps 733 mmHg 15%

    23 January, Wednesday

    Time Temperature Precipitation Wind Pressure Humidity
    00:00 +24°C° 0 mm 6 mps 733 mmHg 16%
    01:00 +23°C° 0 mm 6 mps 733 mmHg 18%
    02:00 +22°C° 0 mm 6 mps 733 mmHg 21%
    03:00 +21°C° 0 mm 5 mps 733 mmHg 25%
    04:00 +20°C° 0 mm 4 mps 734 mmHg 28%
    05:00 +21°C° 0 mm 4 mps 734 mmHg 32%
    06:00 +22°C° 0 mm 5 mps 734 mmHg 36%
    07:00 +22°C° 0 mm 5 mps 735 mmHg 39%
    08:00 +25°C° 0 mm 4 mps 735 mmHg 34%
    09:00 +27°C° 0 mm 4 mps 735 mmHg 28%
    10:00 +28°C° 0 mm 3 mps 734 mmHg 22%
    11:00 +30°C° 0 mm 3 mps 734 mmHg 19%
    12:00 +31°C° 0 mm 2 mps 733 mmHg 16%
    13:00 +34°C° 0 mm 2 mps 732 mmHg 13%
    14:00 +35°C° 0 mm 3 mps 731 mmHg 12%
    15:00 +36°C° 0 mm 3 mps 731 mmHg 11%
    16:00 +37°C° 0 mm 4 mps 730 mmHg 9%
    17:00 +36°C° 0 mm 3 mps 730 mmHg 9%
    18:00 +35°C° 0 mm 3 mps 729 mmHg 10%
    19:00 +35°C° 0 mm 2 mps 729 mmHg 10%
    20:00 +34°C° 0 mm 3 mps 729 mmHg 12%
    21:00 +34°C° 0 mm 4 mps 729 mmHg 15%
    22:00 +33°C° 0 mm 4 mps 729 mmHg 17%
    23:00 +33°C° 0 mm 4 mps 729 mmHg 23%

    24 January, Thursday

    Time Temperature Precipitation Wind Pressure Humidity
    00:00 +32°C° 0 mm 5 mps 728 mmHg 29%
    01:00 +32°C° 0 mm 5 mps 727 mmHg 35%
    02:00 +30°C° 0 mm 4 mps 727 mmHg 40%
    03:00 +30°C° 0 mm 4 mps 727 mmHg 46%
    04:00 +30°C° 0 mm 4 mps 727 mmHg 52%
    05:00 +30°C° 0 mm 4 mps 727 mmHg 42%
    06:00 +32°C° 0 mm 5 mps 727 mmHg 33%
    07:00 +32°C° 0 mm 5 mps 727 mmHg 23%
    08:00 +34°C° 0 mm 5 mps 727 mmHg 19%
    09:00 +35°C° 0 mm 5 mps 727 mmHg 14%
    10:00 +36°C° 0 mm 5 mps 727 mmHg 9%
    11:00 +38°C° 0 mm 6 mps 727 mmHg 8%
    12:00 +39°C° 0 mm 6 mps 726 mmHg 7%
    13:00 +40°C° 0 mm 7 mps 726 mmHg 6%
    14:00 +41°C° 0 mm 8 mps 726 mmHg 5%
    15:00 +42°C° 0 mm 10 mps 726 mmHg 5%
    16:00 +43°C° 0 mm 11 mps 726 mmHg 4%
    17:00 +41°C° 0 mm 12 mps 726 mmHg 5%
    18:00 +38°C° 0 mm 12 mps 727 mmHg 7%
    19:00 +34°C° 0 mm 12 mps 727 mmHg 8%
    20:00 +32°C° 0 mm 13 mps 728 mmHg 11%
    21:00 +29°C° 0 mm 13 mps 728 mmHg 14%
    22:00 +27°C° 0 mm 13 mps 729 mmHg 18%
    23:00 +26°C° 0 mm 14 mps 729 mmHg 23%

    25 January, Friday

    Time Temperature Precipitation Wind Pressure Humidity
    00:00 +24°C° 0 mm 14 mps 729 mmHg 29%
    01:00 +23°C° 0 mm 14 mps 729 mmHg 35%
    02:00 +22°C° 0 mm 13 mps 729 mmHg 36%
    03:00 +22°C° 0 mm 12 mps 729 mmHg 37%
    04:00 +22°C° 0 mm 11 mps 730 mmHg 38%
    05:00 +22°C° 0 mm 10 mps 730 mmHg 35%
    06:00 +22°C° 0 mm 10 mps 731 mmHg 31%
    07:00 +23°C° 0 mm 9 mps 732 mmHg 28%
    08:00 +24°C° 0 mm 9 mps 732 mmHg 24%
    09:00 +27°C° 0 mm 8 mps 732 mmHg 19%
    10:00 +28°C° 0 mm 7 mps 732 mmHg 15%
    11:00 +30°C° 0 mm 6 mps 732 mmHg 13%
    12:00 +32°C° 0 mm 5 mps 732 mmHg 12%
    13:00 +33°C° 0 mm 4 mps 731 mmHg 10%
    14:00 +34°C° 0 mm 4 mps 731 mmHg 9%
    15:00 +35°C° 0 mm 4 mps 731 mmHg 7%
    16:00 +36°C° 0 mm 3 mps 730 mmHg 6%
    17:00 +35°C° 0 mm 5 mps 730 mmHg 6%
    18:00 +34°C° 0 mm 7 mps 731 mmHg 7%
    19:00 +33°C° 0 mm 8 mps 731 mmHg 7%
    20:00 +31°C° 0 mm 8 mps 731 mmHg 9%
    21:00 +29°C° 0 mm 7 mps 732 mmHg 11%
    22:00 +27°C° 0 mm 6 mps 732 mmHg 13%
    23:00 +26°C° 0 mm 6 mps 732 mmHg 14%
    Show more